Flag for U.S.A. Weather past 2 weeks in Provo, Utah, U.S.A.

Now
61 °F

Clear.


Feels Like: 61 °F
Forecast: 54 / 80 °F
Wind: No wind

Location: Provo Municipal

Current Time: Jun 2, 2015 at 1:36:41 AM

Latest Report: Jun 2, 2015 at 1:15 AM


Visibility: 10 mi

Pressure: 29.92 "Hg

Humidity: 59%

Dew point: 46 °F

Location of ProvoLocation

Historic Weather in Provo — Graph

°F

Provo temperature yesterday

Maximum temperature yesterday: 88 °F (at 2:47 PM)
Minimum temperature yesterday: 61 °F (at 5:55 AM)
Average temperature yesterday: 72 °F

Past Weeks' High & Low Weather Summary

 TemperatureHumidityPressure
High90 °F (May 31, 6:52 PM)93% (May 27, 4:55 AM)30.24 "Hg (May 27, 4:55 AM)
Low45 °F (May 21, 3:35 AM)12% (May 31, 6:52 PM)29.85 "Hg (Jun 1, 4:56 PM)
Average57 °F64%30.02 "Hg
* Reported May 18 12:15 AM — Jun 2 12:35 AM, Provo, Weather by CustomWeather, © 2015

Note: Actual official high and low records may vary slightly from our data, if they occured in-between our weather recording intervals... More about our weather records

Advertising

Provo weather history for previous 24 hours

 ConditionsComfort  
Time TempWeatherWind HumidityBarometerVisibility
12:35 AM
Tue, Jun 2
61 °FClear.No wind59%29.91 "Hg10 mi
12:15 AM66 °FClear.5 mph49%29.91 "Hg10 mi
11:55 PM
Mon, Jun 1
66 °FClear.No wind49%29.91 "Hg10 mi
11:35 PM66 °FClear.No wind46%29.91 "Hg10 mi
11:15 PM66 °FClear.6 mph49%29.90 "Hg10 mi
10:55 PM68 °FClear.6 mph49%29.90 "Hg10 mi
10:35 PM70 °FClear.6 mph43%29.90 "Hg10 mi
10:15 PM70 °FClear.9 mph40%29.89 "Hg10 mi
9:15 PM77 °FSunny.12 mph30%29.86 "Hg10 mi
8:56 PM79 °FScattered clouds.17 mph28%29.85 "Hg15 mi
7:58 PM79 °FScattered clouds.17 mph26%29.86 "Hg15 mi
6:58 PM82 °FScattered clouds.17 mph26%29.85 "Hg15 mi
5:58 PM84 °FScattered clouds.17 mph27%29.85 "Hg15 mi
4:56 PM88 °FScattered clouds.21 mph21%29.85 "Hg15 mi
3:47 PM84 °FScattered clouds.12 mph27%29.87 "Hg15 mi
2:47 PM88 °FScattered clouds.14 mph19%29.89 "Hg15 mi
1:47 PM86 °FScattered clouds.15 mph19%29.90 "Hg15 mi
12:47 PM84 °FScattered clouds.12 mph25%29.93 "Hg15 mi
11:50 AM84 °FScattered clouds.6 mph20%29.95 "Hg15 mi
10:47 AM82 °FScattered clouds.6 mph25%29.96 "Hg15 mi
9:47 AM79 °FScattered clouds.9 mph30%29.98 "Hg15 mi
8:55 AM73 °FScattered clouds.9 mph38%29.98 "Hg15 mi
7:52 AM66 °FScattered clouds.10 mph46%29.98 "Hg15 mi
6:52 AM63 °FPassing clouds.6 mph49%29.98 "Hg15 mi
6:35 AM61 °FClear.No wind45%29.98 "Hg10 mi
6:15 AM61 °FClear.8 mph45%29.98 "Hg10 mi
5:55 AM61 °FClear.10 mph45%29.97 "Hg10 mi
5:35 AM63 °FClear.7 mph45%29.96 "Hg10 mi
5:15 AM63 °FClear.13 mph49%29.96 "Hg10 mi
4:55 AM64 °FClear.12 mph49%29.95 "Hg10 mi
4:35 AM66 °FClear.13 mph43%29.95 "Hg10 mi
4:15 AM64 °FClear.12 mph40%29.95 "Hg10 mi
3:55 AM66 °FClear.14 mph43%29.95 "Hg10 mi
3:35 AM66 °FClear.12 mph43%29.96 "Hg10 mi
3:15 AM68 °FClear.12 mph40%29.96 "Hg10 mi
2:55 AM68 °FClear.14 mph43%29.96 "Hg10 mi
2:35 AM68 °FClear.15 mph40%29.96 "Hg10 mi
2:15 AM68 °FClear.6 mph40%29.96 "Hg10 mi
1:55 AM72 °FClear.5 mph38%29.96 "Hg10 mi
1:35 AM70 °FClear.6 mph40%29.96 "Hg10 mi
1:15 AM72 °FClear.9 mph38%29.96 "Hg10 mi
Weather by CustomWeather, © 2015

See weather overviewHow to use our weather pages